Location: Kerguer�zec
(48.4509°N, 4.7600°W)
Time: 09:02:28
(UTC+00:00)

Cosmos 921 Rocket - Pass Details

Date: 09 April 2020
Orbit: 572 x 632 km, 75.8° (Epoch: 23 May)

Event Time Altitude Azimuth Distance (km) Brightness Sun altitude
Rises 20:36:34 0° 335° (NNW) 2,791 7.4 -15.3°
Reaches altitude 10° 20:38:50 10° 329° (NNW) 1,889 6.5 -15.6°
Maximum altitude 20:42:51 47° 256° (WSW) 771 3.8 -16.2°
Enters shadow 20:46:34 12° 184° (S) 1,770 5.1 -16.7°
